Location: Unspecified
(44.7598°N, 0.0000°E)
Time: 07:52:21
(UTC+00:00)

CZ-6A DEB - Visible Passes

Search period start: 04 April 2026 00:00
Search period end: 14 April 2026 00:00
Orbit: 799 x 861 km, 98.8° (Epoch: 27 March)

Date Brightness Start Highest point End Pass type
(mag) Time Alt. Az. Time Alt. Az. Time Alt. Az.
6 Apr ? 04:53:43 10° ENE 04:56:23 14° E 04:59:03 10° ESE visible
8 Apr ? 19:06:34 10° W 19:07:50 11° W 19:09:07 10° WNW visible
12 Apr ? 04:47:05 10° ENE 04:48:51 12° E 04:50:38 10° ESE visible
